This demonstration page uses our WeatherBlox Daily Observations layout. Learn more.

Left ArrowRight Arrow

39.08367, -84.50855

Hourly Observations for August 6, 2019

Temp ( °F °C ) Dew Point ( °F °C ) Humidity (%) Winds ( mph kmh ) Pressure ( in mb ) Visibility ( mi km ) Precip ( " mm )
12:53 am 00:53 Clear 69 20.6 66 18.9 90 90 N N/A 29.92 1013 10 16 N/A
1:53 am 01:53 Clear 67 19.4 66 18.9 97 97 N N/A 29.91 1013 10 16 N/A
2:53 am 02:53 Clear 67 19.4 65 18.3 93 93 N N/A 29.89 1012 8 13 N/A
3:53 am 03:53 Clear with Mist and Fog 67 19.4 65 18.3 93 93 N N/A 29.87 1012 6 10 N/A
4:53 am 04:53 Clear with Mist and Fog 66 18.9 65 18.3 96 96 N N/A 29.88 1012 5 8 N/A
5:49 am 05:49 Clear with Mist and Fog 64 18 64 18 100 100 N N/A 29.89 1012 2 3 N/A
5:53 am 05:53 Clear with Mist and Fog 65 18.3 65 18.3 100 100 N N/A 29.88 1012 1 2 N/A
6:01 am 06:01 Clear with Mist and Fog 65 18.3 64 17.8 97 97 N N/A 29.89 1012 4 6 N/A
6:15 am 06:15 Clear with Mist and Fog 65 18.3 64 17.8 97 97 N N/A 29.90 1013 1 2 N/A
6:27 am 06:27 Clear with Mist and Fog 66 18.9 65 18.3 96 96 N N/A 29.90 1013 3 5 N/A
6:46 am 06:46 Sunny with Mist and Fog 66 18.9 65 18.3 96 96 N N/A 29.90 1013 2 3 N/A
6:53 am 06:53 Sunny with Fog 66 18.9 65 18.3 96 96 N N/A 29.90 1012 1 1 N/A
7:00 am 07:00 Sunny with Patchy Fog 66 18.9 66 18.9 100 100 N N/A 29.90 1013 4 6 N/A
7:53 am 07:53 Sunny with Patchy Fog 69 20.6 67 19.4 93 93 N N/A 29.89 1012 4 6 N/A
8:53 am 08:53 Sunny 74 23.3 69 20.6 85 85 S 5 7 29.88 1012 10 16 N/A
9:53 am 09:53 Sunny 79 26.1 68 20 69 69 S 7 11 29.86 1011 10 16 N/A
10:53 am 10:53 Sunny 82 27.8 67 19.4 60 60 SSW 8 13 29.86 1011 10 16 N/A
11:53 am 11:53 Mostly Sunny 83 28.3 67 19.4 59 59 SW 8 13 29.87 1011 10 16 N/A
12:53 pm 12:53 Partly Cloudy 83 28.3 69 20.6 63 63 SSW 12 19 29.86 1011 10 16 0.00 0.00
1:53 pm 13:53 Mostly Sunny 86 30 70 21.1 59 59 SW 16 26 29.84 1011 10 16 N/A
2:13 pm 14:13 Partly Cloudy with Nearby Thunderstorms 86 30 69 20.6 57 57 WSW 15 24 29.82 1010 10 16 N/A
2:28 pm 14:28 Partly Cloudy 86 30 70 21.1 59 59 SW 10 17 29.81 1010 10 16 N/A
2:51 pm 14:51 Partly Cloudy with Nearby Thunderstorms 84 29 68 20 58 58 WSW 10 17 29.80 1009 10 16 N/A
2:53 pm 14:53 Partly Cloudy with Nearby Thunderstorms 85 29.4 67 19.4 55 55 SW 12 19 29.81 1009 10 16 N/A
3:29 pm 15:29 Mostly Cloudy with Nearby Thunderstorms 84 28.9 67 19.4 57 57 SW 18 30 29.79 1009 4 6 0.00 0.00
3:32 pm 15:32 Mostly Cloudy with Thunderstorms 82 27.8 67 19.4 60 60 WSW 17 28 29.80 1009 4 6 0.01 0.25
3:53 pm 15:53 Mostly Cloudy with Thunderstorms 79 26.1 72 22.2 79 79 NNE 8 13 29.81 1010 7 11 0.03 0.76
4:53 pm 16:53 Mostly Cloudy with Thunderstorms 76 24.4 72 22.2 88 88 N N/A 29.83 1010 7 11 0.16 4.06
4:56 pm 16:56 Mostly Cloudy with Thunderstorms 76 24.4 72 22.2 88 88 W 7 11 29.83 1010 3 5 0.06 1.52
5:29 pm 17:29 Mostly Cloudy with Nearby Thunderstorms 72 22.2 70 21.1 94 94 N N/A 29.81 1010 8 13 0.22 5.59
5:53 pm 17:53 Partly Cloudy with Nearby Thunderstorms 74 23.3 70 21.1 88 88 N N/A 29.80 1009 10 16 0.22 5.59
6:02 pm 18:02 Partly Cloudy 75 23.9 70 21.1 84 84 N N/A 29.80 1009 10 16 N/A
6:53 pm 18:53 Partly Cloudy 77 25 73 22.8 88 88 SW 5 7 29.80 1009 10 16 N/A
7:53 pm 19:53 Mostly Sunny 76 24.4 73 22.8 91 91 N N/A 29.79 1009 9 14 N/A
8:53 pm 20:53 Mostly Clear with Mist and Fog 73 22.8 72 22.2 96 96 SSW 3 6 29.79 1009 6 10 N/A
9:45 pm 21:45 Mostly Clear with Nearby Thunderstorms 73 22.8 72 22.2 96 96 N N/A 29.78 1009 5 8 N/A
9:53 pm 21:53 Mostly Clear with Thunderstorms 74 23.3 72 22.2 94 94 WSW 3 6 29.80 1009 7 11 N/A
9:59 pm 21:59 Mostly Cloudy with Thunderstorms 74 23.3 72 22.2 94 94 WSW 20 31 29.80 1009 4 6 0.02 0.51
10:04 pm 22:04 Mostly Cloudy with Thunderstorms 71 21.7 67 19.4 87 87 SW 37 59 29.80 1009 3 5 0.28 7.11
10:12 pm 22:12 Mostly Cloudy with Thunderstorms 74 23.3 62 16.7 67 67 SW 10 17 29.80 1009 5 8 0.38 9.65
10:34 pm 22:34 Cloudy with Thunderstorms 69 20.6 67 19.4 93 93 E 5 7 29.82 1010 10 16 0.50 12.70
10:50 pm 22:50 Mostly Cloudy 66 19 66 19 100 100 N N/A 29.81 1009 10 16 0.50 12.70
10:53 pm 22:53 Mostly Cloudy 68 20 66 18.9 93 93 N N/A 29.80 1009 10 16 0.50 12.70
11:31 pm 23:31 Clear with Nearby Thunderstorms 68 20 67 19.4 96 96 WSW 5 7 29.81 1009 10 16 N/A
11:42 pm 23:42 Mostly Cloudy with Thunderstorms 70 21.1 68 20 93 93 S 10 17 29.82 1010 10 16 N/A
11:53 pm 23:53 Mostly Cloudy with Nearby Thunderstorms 72 22.2 66 18.9 82 82 SSW 9 15 29.81 1010 10 16 N/A

Powered by AerisWeather